FW8421 Weather Reports


time (UTC)temp
C
wind
direction
speed
KPH
gust
KPH
rain 1hr
cm
rain 24hr
cm
rain mn
cm
humidity
%
barometer
mb
20260505041545 13 90 0.0 0.0 0.00 0.00 0.00 73 1010.6
20260505040524 13 68 0.0 0.0 0.00 0.00 0.00 73 1010.6
20260505040025 13 68 0.0 0.0 0.00 0.00 0.00 72 1010.6
20260505035506 13 68 0.0 0.0 0.00 0.00 0.00 72 1010.8
20260505034446 13 68 0.0 0.0 0.00 0.00 0.00 71 1010.7
20260505033934 13 68 0.0 0.0 0.00 0.00 0.00 71 1011.0
20260505033424 13 68 0.0 0.0 0.00 0.00 0.00 71 1010.8
20260505032915 13 90 0.0 0.0 0.00 0.00 0.00 71 1010.6
20260505032403 13 68 0.0 0.0 0.00 0.00 0.00 71 1010.7
20260505031854 13 90 0.0 0.0 0.00 0.00 0.00 71 1010.6
20260505030323 13 90 0.0 3.2 0.00 0.00 0.00 71 1010.3
20260505025813 13 90 0.0 0.0 0.00 0.00 0.00 70 1010.3
20260505025304 13 90 0.0 0.0 0.00 0.00 0.00 70 1010.6
20260505024753 13 90 0.0 0.0 0.00 0.00 0.00 70 1010.3
20260505024243 13 90 0.0 0.0 0.00 0.00 0.00 70 1010.3
20260505023733 13 90 0.0 0.0 0.00 0.00 0.00 70 1010.3
20260505022713 13 113 0.0 0.0 0.00 0.00 0.00 69 1010.5
20260505022205 13 90 0.0 0.0 0.00 0.00 0.00 68 1010.5
20260505021652 13 90 0.0 0.0 0.00 0.00 0.00 69 1010.3
20260505021143 13 90 0.0 0.0 0.00 0.00 0.00 68 1010.5
20260505020633 13 113 0.0 0.0 0.00 0.00 0.00 68 1010.5
20260505020125 13 90 0.0 0.0 0.00 0.00 0.00 68 1010.6
20260505015614 13 68 0.0 0.0 0.00 0.00 0.00 68 1010.7
20260505015101 13 68 0.0 0.0 0.00 0.00 0.00 67 1010.6
20260505014553 13 45 0.0 0.0 0.00 0.00 0.00 66 1010.4
20260505014041 13 45 0.0 0.0 0.00 0.00 0.00 66 1010.5
20260505013022 14 45 0.0 0.0 0.00 0.00 0.00 66 1010.4
20260505012511 14 68 0.0 0.0 0.00 0.00 0.00 65 1010.2
20260505012004 14 68 0.0 0.0 0.00 0.00 0.00 66 1010.1
20260505011454 14 68 0.0 0.0 0.00 0.00 0.00 66 1010.0
20260505010942 14 68 0.0 0.0 0.00 0.00 0.00 66 1010.0
20260505010431 14 68 0.0 0.0 0.00 0.00 0.00 65 1009.8
20260505005920 14 68 0.0 0.0 0.00 0.00 0.00 65 1010.0
20260505005411 15 68 0.0 0.0 0.00 0.00 0.00 64 1009.9
20260505004903 15 68 0.0 0.0 0.00 0.00 0.00 63 1009.8
20260505004351 15 68 0.0 0.0 0.00 0.00 0.00 63 1009.7
20260505003330 15 68 0.0 0.0 0.00 0.00 0.00 62 1009.5
20260505002821 15 90 0.0 0.0 0.00 0.00 0.00 62 1009.5
20260505002310 15 90 0.0 0.0 0.00 0.00 0.00 62 1009.5
20260505001801 15 90 0.0 0.0 0.00 0.00 0.00 62 1009.6
20260505001250 15 90 0.0 0.0 0.00 0.00 0.00 63 1009.4
20260505000740 15 90 0.0 0.0 0.00 0.00 0.00 62 1009.4
20260505000230 15 68 0.0 0.0 0.00 0.00 0.00 62 1009.2
20260504235719 15 68 0.0 0.0 0.00 0.00 0.00 62 1009.3
20260504235209 15 90 0.0 0.0 0.00 0.00 0.00 62 1009.2
20260504234659 15 90 0.0 0.0 0.00 0.00 0.00 61 1009.3
20260504233638 16 68 0.0 0.0 0.00 0.00 0.00 60 1009.3
20260504233128 16 68 0.0 0.0 0.00 0.00 0.00 60 1009.2
20260504232111 16 68 0.0 0.0 0.00 0.00 0.00 59 1009.3
20260504231558 16 68 0.0 0.0 0.00 0.00 0.00 59 1009.1
20260504231049 16 68 0.0 0.0 0.00 0.00 0.00 59 1009.1
20260504230540 16 68 0.0 0.0 0.00 0.00 0.00 59 1009.3
20260504230028 16 68 0.0 0.0 0.00 0.00 0.00 59 1008.8
20260504225518 16 68 0.0 0.0 0.00 0.00 0.00 59 1009.0
20260504225008 16 68 0.0 0.0 0.00 0.00 0.00 58 1008.8
20260504224458 17 45 0.0 0.0 0.00 0.00 0.00 58 1008.6
20260504223948 17 45 0.0 0.0 0.00 0.00 0.00 58 1008.8
20260504223438 17 45 0.0 0.0 0.00 0.00 0.00 57 1008.5
20260504222928 17 45 0.0 0.0 0.00 0.00 0.00 56 1008.6
20260504222417 17 68 0.0 0.0 0.00 0.00 0.00 57 1008.3
20260504221907 17 68 0.0 0.0 0.00 0.00 0.00 56 1008.3
20260504221357 17 68 0.0 0.0 0.00 0.00 0.00 56 1008.4
20260504220337 17 45 0.0 0.0 0.00 0.00 0.00 55 1008.4
20260504215827 17 45 0.0 6.4 0.00 0.00 0.00 55 1008.5
20260504215320 18 45 0.0 6.4 0.00 0.00 0.00 54 1008.5
20260504214806 18 45 4.8 6.4 0.00 0.00 0.00 53 1008.4
20260504214256 18 45 0.0 6.4 0.00 0.00 0.00 52 1008.4
20260504213747 18 45 0.0 6.4 0.00 0.00 0.00 52 1008.4
20260504213236 19 45 0.0 6.4 0.00 0.00 0.00 51 1008.3
20260504212726 19 45 0.0 6.4 0.00 0.00 0.00 50 1008.3
20260504211705 19 45 0.0 0.0 0.00 0.00 0.00 50 1008.4
20260504211155 19 23 0.0 6.4 0.00 0.00 0.00 51 1008.3
20260504210646 20 23 0.0 6.4 0.00 0.00 0.00 50 1008.4
20260504210137 20 23 3.2 6.4 0.00 0.00 0.00 49 1008.6
20260504205626 20 23 0.0 6.4 0.00 0.00 0.00 48 1008.5
20260504204605 20 23 3.2 6.4 0.00 0.00 0.00 48 1008.5
20260504204054 21 0 0.0 6.4 0.00 0.00 0.00 48 1008.5
20260504203545 21 0 0.0 3.2 0.00 0.00 0.00 46 1008.3
20260504203034 21 0 0.0 9.7 0.00 0.00 0.00 44 1008.2
20260504202538 21 0 0.0 9.7 0.00 0.00 0.00 43 1008.4
20260504202014 22 0 0.0 12.9 0.00 0.00 0.00 44 1008.2
20260504201504 22 0 1.6 12.9 0.00 0.00 0.00 41 1008.3
20260504200445 22 0 4.8 9.7 0.00 0.00 0.00 41 1008.4
20260504195934 22 0 3.2 12.9 0.00 0.00 0.00 42 1008.1
20260504195424 22 0 6.4 12.9 0.00 0.00 0.00 40 1008.3
20260504194914 22 0 0.0 9.7 0.00 0.00 0.00 42 1008.1
20260504194403 22 23 1.6 6.4 0.00 0.00 0.00 40 1008.1
20260504193854 22 338 0.0 6.4 0.00 0.00 0.00 41 1008.2
20260504192834 22 315 1.6 12.9 0.00 0.00 0.00 40 1008.3
20260504192324 22 338 1.6 12.9 0.00 0.00 0.00 40 1008.2
20260504191814 22 338 3.2 9.7 0.00 0.00 0.00 40 1008.4
20260504191303 23 338 0.0 6.4 0.00 0.00 0.00 40 1008.3
20260504190753 23 0 0.0 12.9 0.00 0.00 0.00 40 1008.3
20260504185733 22 338 0.0 9.7 0.00 0.00 0.00 42 1008.5
20260504185222 22 315 0.0 17.7 0.00 0.00 0.00 42 1008.6
20260504184714 22 23 4.8 17.7 0.00 0.00 0.00 39 1008.6
20260504184202 22 338 1.6 14.5 0.00 0.00 0.00 42 1008.2
20260504183653 22 338 3.2 14.5 0.00 0.00 0.00 43 1008.3
20260504183142 22 338 3.2 14.5 0.00 0.00 0.00 43 1008.4
20260504182632 22 23 3.2 17.7 0.00 0.00 0.00 44 1008.2
20260504182122 22 338 1.6 17.7 0.00 0.00 0.00 45 1008.2
20260504181612 22 338 1.6 17.7 0.00 0.00 0.00 43 1008.2
20260504181104 22 0 1.6 11.3 0.00 0.00 0.00 42 1008.3
20260504180553 22 0 3.2 11.3 0.00 0.00 0.00 40 1008.6
20260504180054 22 315 1.6 12.9 0.00 0.00 0.00 42 1008.7
20260504175532 22 338 1.6 17.7 0.00 0.00 0.00 42 1008.9
20260504175023 21 338 4.8 17.7 0.00 0.00 0.00 42 1008.8
20260504174511 22 23 0.0 17.7 0.00 0.00 0.00 43 1008.8
20260504174002 22 0 4.8 14.5 0.00 0.00 0.00 43 1008.9
20260504173451 21 338 4.8 20.9 0.00 0.00 0.00 43 1008.9
20260504172940 21 0 1.6 20.9 0.00 0.00 0.00 43 1009.1
20260504172431 21 0 3.2 17.7 0.00 0.00 0.00 44 1009.2
20260504171410 21 338 6.4 20.9 0.00 0.00 0.00 43 1009.4
20260504170350 21 315 0.0 20.9 0.00 0.00 0.00 45 1009.7
20260504160149 20 0 6.4 24.1 0.00 0.00 0.00 49 1011.1
20260504151010 19 338 3.2 27.4 0.00 0.00 0.00 54 1011.8
20260504150459 18 338 3.2 24.1 0.00 0.00 0.00 54 1012.0
20260504140809 17 0 1.6 22.5 0.00 0.00 0.00 59 1012.1
20260504130604 13 338 0.0 17.7 0.00 0.00 0.00 67 1012.6
20260504130108 12 338 0.0 20.9 0.00 0.00 0.00 68 1012.7
20260504110714 6 23 0.0 0.0 0.00 0.00 0.00 81 1012.3
20260504110203 6 23 0.0 0.0 0.00 0.00 0.00 81 1012.4
20260504100512 7 23 0.0 0.0 0.00 0.00 0.00 79 1012.2
20260504081639 8 0 0.0 0.0 0.00 0.00 0.00 76 1011.8
20260504080119 8 0 0.0 9.7 0.00 0.00 0.00 75 1011.7
20260504070210 9 0 0.0 0.0 0.00 0.00 0.00 72 1011.8
20260504050740 10 0 1.6 12.9 0.00 0.00 0.00 71 1012.8
20260504050229 10 45 0.0 12.9 0.00 0.00 0.00 70 1012.4
20260504045720 10 45 9.7 11.3 0.00 0.00 0.00 70 1012.5